Reynoldsville, PA

4:38 PM EST on February 24, 2017 (GMT -0500)
Du Bois-Jefferson County

Weather History for KDUJ - January, 2014

Change the Weather History Date:

Thursday, January 16, 2014

  Actual Average Record
Temperature  
Mean Temperature 24 °F 23 °F  
Max Temperature 29 °F 31 °F 56 °F (1995)
Min Temperature 18 °F 16 °F -14 °F (1982)
Degree Days  
Heating Degree Days 41 42  
Month to date heating degree days 660 662  
Since 1 July heating degree days 3147 3324  
Cooling Degree Days 0 0  
Month to date cooling degree days 0 0  
Year to date cooling degree days 0 0  
Moisture  
Dew Point 12 °F    
Average Humidity 65    
Maximum Humidity 74    
Minimum Humidity 55    
Precipitation  
Precipitation T in 0.10 in 0.78 in (1991)
Month to date precipitation 1.50 1.66  
Sea Level Pressure  
Sea Level Pressure 29.91 in    
Wind  
Wind Speed 7 mph (SW)    
Max Wind Speed 10 mph    
Max Gust Speed 23 mph    
Visibility 10 miles    
Events      
T = Trace of Precipitation, MM = Missing Value Source: NWS Daily Summary

Daily Weather History Graph

Daily Weather History Graph

Search for Another Location

Airport or City:

Trip Planner

Search our weather history database for the weather conditions in past years. The results will help you decide how hot, cold, wet, or windy it might be!

Date:

Astronomy

Jan. 16, 2014 Rise Set
Actual Time 7:38 AM EST 5:12 PM EST
Civil Twilight 7:08 AM EST 5:43 PM EST
Nautical Twilight 6:34 AM EST 6:17 PM EST
Astronomical Twilight 6:01 AM EST 6:50 PM EST
Moon 6:03 PM EST (1/16) 7:30 AM EST (1/16)
Length of Visible Light 10h 35m
Length of Day
9h 34m
Full, 100% of the Moon is Illuminated
Jan 16
Full
Jan 24
Last Quarter
Jan 30
New
Feb 6
First Quarter
Feb 14
Full

Hourly Weather History & Observations

Time (EST) Temp. Windchill Dew Point Humidity Pressure Visibility Wind Dir Wind Speed Gust Speed Precip Events Conditions
12:56 AM 24.1 °F 17.0 °F 15.1 °F 69% 29.95 in 9.0 mi SW 5.8 mph - N/A   Overcast
1:56 AM 24.1 °F 15.2 °F 15.1 °F 69% 29.95 in 10.0 mi WSW 8.1 mph - 0.00 in   Overcast
2:11 AM 24.8 °F 15.3 °F 15.8 °F 69% 29.89 in 10.0 mi SW 9.2 mph - N/A   Overcast
2:56 AM 23.0 °F 13.9 °F 12.9 °F 65% 29.96 in 10.0 mi West 8.1 mph - N/A   Overcast
3:56 AM 23.0 °F 13.1 °F 10.9 °F 60% 29.95 in 10.0 mi West 9.2 mph - N/A   Overcast
4:56 AM 21.9 °F 14.5 °F 9.0 °F 58% 29.94 in 10.0 mi WSW 5.8 mph - N/A   Overcast
5:56 AM 21.0 °F - 12.0 °F 68% 29.93 in 10.0 mi Calm Calm - N/A   Overcast
6:56 AM 19.9 °F - 10.0 °F 65% 29.95 in 10.0 mi Calm Calm - N/A   Mostly Cloudy
7:56 AM 18.0 °F 12.7 °F 10.9 °F 74% 29.96 in 10.0 mi SW 3.5 mph - N/A   Clear
8:56 AM 21.0 °F 9.9 °F 12.0 °F 68% 29.98 in 10.0 mi WSW 10.4 mph - N/A   Clear
9:33 AM 21.2 °F 9.5 °F 12.2 °F 68% 29.91 in 10.0 mi WSW 11.5 mph - N/A   Mostly Cloudy
9:56 AM 21.9 °F 11.0 °F 10.9 °F 63% 29.99 in 10.0 mi SW 10.4 mph - N/A   Overcast
10:47 AM 24.8 °F 13.4 °F 12.2 °F 59% 29.89 in 10.0 mi WSW 12.7 mph 19.6 mph N/A   Scattered Clouds
10:56 AM 24.1 °F 13.7 °F 10.9 °F 57% 29.96 in 10.0 mi SSW 10.4 mph - N/A   Partly Cloudy
11:56 AM 26.1 °F 17.6 °F 12.0 °F 55% 29.91 in 10.0 mi SW 8.1 mph - N/A   Clear
12:56 PM 26.1 °F 17.6 °F 12.0 °F 55% 29.88 in 10.0 mi SSW 8.1 mph - N/A   Partly Cloudy
1:18 PM 28.4 °F 19.1 °F 14.0 °F 55% 29.80 in 10.0 mi WSW 10.4 mph - N/A   Mostly Cloudy
1:38 PM 26.6 °F 15.7 °F 12.2 °F 55% 29.81 in 10.0 mi SW 12.7 mph - N/A   Scattered Clouds
1:48 PM 26.6 °F 16.8 °F 12.2 °F 55% 29.80 in 10.0 mi South 10.4 mph - N/A   Mostly Cloudy
1:56 PM 26.1 °F 18.4 °F 12.9 °F 58% 29.87 in 10.0 mi South 6.9 mph - N/A   Mostly Cloudy
10:56 PM 28.0 °F 24.2 °F 15.1 °F 58% 29.86 in 10.0 mi South 3.5 mph - N/A   Overcast